Regional Weather Roundup
Issued by NWS Sioux Falls, SD

Home | Current Version | Previous Version | Text Only | Print | Product List | Glossary On
Versions: 1 2 3 4 5 6 7 8 9 10 11 12 13 14 15 16 17 18 19 20 21 22 23 24 25 26 27 28 29 30 31 32 33 34 35 36 37 38 39 40 41 42 43 44 45 46 47 48 49 50
367
ASUS43 KFSD 271210
RWRFSD

WEATHER ROUNDUP FOR SE SOUTH DAKOTA/SW MINNESOTA/NW IOWA
NATIONAL WEATHER SERVICE SIOUX FALLS SD
700 AM CDT FRI MAY 27 2016

NOTE: "FAIR" INDICATES FEW OR NO CLOUDS BELOW 12,000 FEET WITH NO
SIGNIFICANT WEATHER AND OR OBSTRUCTIONS TO VISIBILITY.


SDZ038>040-050-052>070-271300-
SOUTHEAST SOUTH DAKOTA

CITY           SKY/WX    TMP DP  RH WIND       PRES   REMARKS
CHAMBERLAIN    CLOUDY    59  56  89 N3        29.75R
6HR MIN TEMP:  58; 6HR MAX TEMP:  65;

HURON          CLOUDY    58  57  97 MISG      29.72S
6HR MIN TEMP:  56; 6HR MAX TEMP:  61;

MADISON        FAIR      55  55 100 E5        29.74R
MITCHELL       CLOUDY    59  58  96 CALM      29.70F
6HR MIN TEMP:  59; 6HR MAX TEMP:  64;

SIOUX FALLS    CLOUDY    61  55  81 SE5       29.73F
6HR MIN TEMP:  55; 6HR MAX TEMP:  63; 6HR PCP: TRACE;

WINNER         PTSUNNY   57  52  83 N7        29.77R
YANKTON        CLOUDY    61  55  82 E5        29.71S
$$

MNZ071-072-080-081-089-090-097-098-271300-
SOUTHWEST MINNESOTA

CITY           SKY/WX    TMP DP  RH WIND       PRES   REMARKS
FAIRMONT       CLOUDY    63  54  72 SE10      29.77S
JACKSON        PTSUNNY   61  55  82 E3        29.78S
LUVERNE        CLOUDY    57  54  88 CALM      29.75S
MARSHALL       PTSUNNY   62  56  80 S5        29.75R
6HR MIN TEMP:  61; 6HR MAX TEMP:  65;

MONTEVIDEO     CLOUDY    63  55  77 CALM      29.74S
PIPESTONE      MOSUNNY   61  55  82 S7        29.75R
REDWOOD FALLS  SUNNY     62  57  83 SE10      29.75R
TRACY          CLOUDY    63  56  80 SW5       29.75R
WINDOM         CLOUDY    63  55  77 CALM      29.77S
WORTHINGTON    CLOUDY    60  55  83 SE6       29.78R
$$

IAZ001>003-012>014-020>022-031-032-NEZ013-014-SDZ071-271300-
NORTHWEST IOWA

CITY           SKY/WX    TMP DP  RH WIND       PRES   REMARKS
CHEROKEE       CLOUDY    60  58  92 E6        29.74F
ESTHERVILLE    MOSUNNY   60  57  89 SE7       29.77R
LE MARS        CLOUDY    63  57  82 E6        29.74F
ORANGE CITY    CLOUDY    61  55  82 E3        29.75S
SHELDON        CLOUDY    59  57  94 E6        29.74F
SIOUX CITY     CLOUDY    64  57  78 E8        29.72S
6HR MIN TEMP:  60; 6HR MAX TEMP:  65;

SPENCER        CLOUDY    59  55  87 E6        29.77R
6HR MIN TEMP:  56; 6HR MAX TEMP:  63;

STORM LAKE     CLOUDY    61  57  88 SE7       29.75F
$$

ABBREVIATIONS USED IN REMARKS
   TC - TEMPERATURE IN CELSIUS
  WCI - WIND CHILL INDEX
   HX - HEAT INDEX
  VSB - VISIBILITY





USA.gov is the U.S. government's official web portal to all federal, state and local government web resources and services.